ROMMA est une association bénévole à but non lucratif. Votre soutien est indispensable : ADHERER à ROMMA ou FAIRE un DON

Voiron - (38, Isère)

Voironnais (300 m)   Longitude: 05° 35' E   Latitude: 45° 23' N Station partenaire n°109
 

Détail journalier du     <<     >>

Température Precipitation Humidité Pression Vent Dir Rafale Dir. rafale Ensol.
Heure (°C) (mm) (%) (hPa) (km/h) (km/h) (min)
01:00 12.008010199E48N0
02:00 11.608010196N23N0
03:00 11.308510193NNO10ENE0
04:00 11.708110182N16NE0
05:00 10.808510182ENE15ENE0
06:00 9.908810182NNE6NNE0
07:00 10.408510184NO16N0
08:00 11.1081101910N21NNO0
09:00 11.108110194E16NE0
10:00 12.907610202E15ESE60
11:00 13.407110206N23NNO60
12:00 13.8068102111N32N60
13:00 15.2064102013N32N60
14:00 15.9063102015N32N60
15:00 15.2069102015NNO34N0
16:00 15.3067102016NNO32NNO0
17:00 15.7066102015N34NNO0
18:00 15.3066102010N27NNO0
19:00 14.606910219N29NNO30
20:00 14.0071102110NE24NE0
21:00 13.407410227N21NE0
22:00 12.907710223N18NNE0
23:00 11.408210224NNO15NNO0
minuit 10.308710231N8N0

Graphique du 07-10-2019

 

Serveur OMMA